Total_Precipitation_Accumulation
0.87 0.84 0.77 0.77 0.71 0.77 0.86 0.90 0.82 0.73 0.68 0.61 0.57 0.60 0.58 0.58 0.60 0.61 0.68 0.63 0.69 0.81 0.85 0.78 0.62 0.48 0.40 0.41 0.49 0.54 0.60 0.65 0.68 0.69 0.62 0.51 0.43 0.31 0.22 0.20 0.19 0.19 0.21
0.93 0.89 0.85 0.86 0.83 0.83 0.94 0.92 0.80 0.80 0.78 0.68 0.57 0.57 0.59 0.61 0.64 0.59 0.61 0.70 0.71 0.70 0.84 0.93 0.86 0.62 0.50 0.47 0.52 0.60 0.62 0.59 0.60 0.60 0.57 0.53 0.46 0.39 0.28 0.24 0.25 0.21 0.21
0.83 0.86 0.87 0.87 0.91 0.99 1.04 1.05 0.86 0.82 0.74 0.65 0.60 0.55 0.52 0.53 0.53 0.55 0.49 0.47 0.54 0.64 0.76 0.91 0.96 0.78 0.66 0.60 0.57 0.57 0.59 0.57 0.56 0.52 0.48 0.43 0.39 0.37 0.33 0.30 0.31 0.29 0.29
0.76 0.90 0.90 0.88 0.90 1.02 1.10 1.12 1.00 0.90 0.78 0.72 0.72 0.65 0.58 0.57 0.51 0.53 0.51 0.43 0.49 0.48 0.63 0.69 0.77 0.80 0.76 0.69 0.64 0.57 0.50 0.45 0.43 0.43 0.41 0.36 0.30 0.28 0.27 0.30 0.32 0.33 0.34
0.83 1.00 1.10 1.11 1.11 1.11 1.09 1.03 1.05 0.99 0.88 0.84 0.81 0.76 0.69 0.60 0.56 0.49 0.50 0.50 0.44 0.44 0.50 0.43 0.47 0.50 0.60 0.64 0.64 0.63 0.53 0.44 0.39 0.38 0.35 0.28 0.22 0.20 0.20 0.24 0.24 0.26 0.28
1.18 1.32 1.31 1.38 1.44 1.31 1.24 1.16 1.16 1.10 0.98 0.95 0.90 0.77 0.71 0.62 0.62 0.59 0.59 0.56 0.52 0.45 0.50 0.44 0.37 0.31 0.36 0.48 0.56 0.67 0.61 0.51 0.44 0.38 0.34 0.28 0.21 0.18 0.17 0.18 0.19 0.19 0.22
1.52 1.72 1.68 1.71 1.72 1.57 1.50 1.57 1.72 1.65 1.37 1.13 1.08 0.90 0.74 0.60 0.65 0.62 0.58 0.58 0.57 0.60 0.63 0.59 0.43 0.35 0.27 0.30 0.35 0.54 0.66 0.57 0.52 0.46 0.40 0.33 0.24 0.17 0.15 0.15 0.17 0.19 0.19
1.43 1.57 1.81 1.88 1.79 1.78 1.89 1.93 2.19 2.29 1.87 1.47 1.41 1.46 1.17 0.96 0.70 0.53 0.54 0.53 0.56 0.73 0.69 0.57 0.49 0.38 0.30 0.28 0.20 0.31 0.51 0.60 0.56 0.51 0.44 0.40 0.32 0.21 0.15 0.13 0.15 0.17 0.19
1.41 1.50 1.66 1.80 1.79 1.85 1.90 2.01 2.33 2.71 2.44 1.96 1.74 1.85 1.51 1.31 1.13 0.70 0.51 0.51 0.57 0.72 0.80 0.72 0.65 0.54 0.42 0.41 0.32 0.27 0.29 0.39 0.55 0.54 0.54 0.48 0.37 0.25 0.19 0.17 0.18 0.19 0.20
1.30 1.37 1.50 1.63 1.73 1.75 1.86 1.93 2.04 2.47 2.73 2.42 2.16 1.82 1.48 1.35 1.39 1.15 0.75 0.62 0.67 0.70 0.76 0.76 0.72 0.72 0.66 0.60 0.53 0.36 0.30 0.30 0.48 0.61 0.65 0.61 0.49 0.36 0.30 0.27 0.26 0.25 0.22
1.40 1.39 1.52 1.58 1.59 1.65 1.74 2.03 2.27 2.51 2.65 2.56 2.46 2.29 2.05 1.72 1.31 1.34 1.26 0.97 0.84 0.77 0.77 0.80 0.80 0.78 0.78 0.77 0.82 0.59 0.39 0.31 0.35 0.57 0.74 0.77 0.67 0.50 0.40 0.36 0.31 0.28 0.25
1.49 1.53 1.59 1.58 1.54 1.57 1.66 1.86 2.12 2.33 2.59 2.72 2.60 2.40 2.25 2.04 1.75 1.57 1.35 1.24 1.17 0.96 0.93 0.92 0.86 0.85 0.86 0.92 0.97 0.97 0.59 0.34 0.28 0.39 0.60 0.78 0.83 0.72 0.59 0.48 0.39 0.35 0.31
1.37 1.41 1.52 1.63 1.70 1.71 1.81 1.95 2.09 2.00 2.21 2.53 2.49 2.34 2.24 1.98 1.91 1.90 1.70 1.44 1.27 0.97 0.91 0.92 0.87 0.95 0.91 0.86 1.06 1.28 0.82 0.48 0.35 0.36 0.41 0.49 0.61 0.75 0.81 0.74 0.63 0.49 0.42
1.33 1.27 1.32 1.42 1.56 1.70 1.74 1.78 1.79 1.73 1.85 2.05 2.11 2.29 2.38 2.12 1.93 1.78 1.66 1.65 1.40 1.15 0.99 0.92 0.82 0.83 0.86 0.87 1.04 1.22 0.86 0.65 0.44 0.36 0.36 0.40 0.40 0.45 0.62 0.74 0.81 0.76 0.68
1.09 1.02 1.02 1.06 1.13 1.20 1.26 1.42 1.52 1.60 1.61 1.72 1.84 1.98 2.14 2.24 2.15 1.89 1.77 1.70 1.59 1.38 1.20 1.10 0.96 0.78 0.87 0.95 1.11 0.94 0.82 0.83 0.63 0.45 0.36 0.36 0.34 0.32 0.35 0.41 0.50 0.57 0.65
1.00 0.93 0.89 0.85 0.81 0.78 0.81 1.00 1.19 1.30 1.40 1.54 1.69 1.80 1.83 1.91 2.10 2.07 1.87 1.80 1.68 1.48 1.31 1.15 1.07 0.92 1.02 0.99 1.09 0.91 0.92 0.99 0.75 0.56 0.43 0.38 0.34 0.29 0.24 0.22 0.21 0.22 0.25
0.98 0.96 0.88 0.82 0.89 0.87 0.82 0.88 0.94 1.00 1.08 1.21 1.34 1.44 1.57 1.84 2.15 2.18 2.13 1.99 1.83 1.63 1.36 1.21 1.01 0.88 1.09 1.16 1.15 1.02 1.00 0.94 0.77 0.69 0.56 0.46 0.39 0.34 0.29 0.24 0.20 0.18 0.16
0.67 0.75 0.83 0.78 0.77 0.79 0.80 0.86 0.88 0.92 0.94 1.02 1.10 1.21 1.34 1.64 2.01 2.23 2.32 2.21 2.04 1.86 1.67 1.51 1.20 0.92 0.99 1.25 1.38 1.31 1.10 0.96 0.88 0.84 0.75 0.61 0.50 0.41 0.35 0.32 0.27 0.22 0.18
0.50 0.54 0.63 0.64 0.72 0.79 0.81 0.83 0.85 0.87 0.90 0.99 1.12 1.16 1.19 1.35 1.56 1.80 2.00 2.11 2.10 2.07 1.98 1.71 1.45 1.19 1.06 1.15 1.37 1.38 1.27 1.22 1.08 1.03 1.03 0.90 0.75 0.62 0.50 0.44 0.40 0.33 0.26
0.52 0.58 0.70 0.74 0.69 0.67 0.71 0.82 0.86 0.80 0.79 0.85 0.94 1.02 1.09 1.11 1.23 1.40 1.54 1.73 1.93 2.14 2.19 2.01 1.75 1.47 1.32 1.17 1.23 1.37 1.44 1.37 1.27 1.13 1.09 1.01 0.99 0.89 0.73 0.60 0.51 0.44 0.40
0.57 0.59 0.70 0.80 0.87 0.82 0.79 0.87 0.84 0.82 0.83 0.81 0.86 0.86 0.91 0.93 0.94 1.10 1.17 1.40 1.72 1.97 2.07 2.10 1.98 1.69 1.44 1.26 1.03 1.08 1.32 1.51 1.50 1.41 1.40 1.20 1.10 0.98 0.89 0.82 0.75 0.65 0.57
0.47 0.47 0.51 0.58 0.67 0.72 0.92 0.87 0.71 0.69 0.74 0.80 0.85 0.84 0.85 0.80 0.76 0.78 0.89 1.03 1.33 1.54 1.67 1.72 1.72 1.58 1.40 1.25 1.18 1.14 1.16 1.26 1.32 1.27 1.28 1.34 1.29 1.16 1.07 0.98 1.00 1.02 0.93
0.40 0.38 0.37 0.37 0.44 0.59 0.67 0.51 0.49 0.56 0.69 0.80 0.86 0.88 0.84 0.80 0.83 0.82 0.78 0.78 0.87 1.06 1.27 1.46 1.46 1.37 1.44 1.34 1.24 1.15 1.14 1.10 1.06 1.17 1.23 1.28 1.29 1.22 1.17 1.15 1.18 1.10 1.03
0.30 0.29 0.36 0.44 0.46 0.47 0.52 0.42 0.42 0.53 0.72 0.84 0.83 0.78 0.84 0.85 0.88 0.93 0.83 0.84 0.80 0.81 0.91 0.97 1.11 1.31 1.44 1.58 1.52 1.40 1.39 1.32 1.23 1.25 1.25 1.21 1.13 1.11 1.06 1.05 1.08 0.96 0.87
0.34 0.37 0.48 0.56 0.49 0.41 0.45 0.45 0.51 0.67 0.79 0.87 0.83 0.82 0.89 0.90 1.03 1.05 0.95 0.98 0.92 0.87 0.86 0.97 1.07 1.17 1.25 1.37 1.47 1.44 1.40 1.36 1.26 1.19 1.14 1.10 1.01 0.99 1.00 0.94 0.91 0.90 0.81
0.31 0.38 0.40 0.38 0.38 0.44 0.49 0.48 0.60 0.79 0.91 1.01 0.96 0.95 1.13 1.06 1.01 0.94 0.90 1.04 1.01 0.85 0.75 0.81 0.87 0.94 0.98 1.07 1.18 1.18 1.26 1.30 1.23 1.13 0.96 0.90 0.94 0.95 0.95 0.86 0.80 0.78 0.74